Flag for U.S.A. Weather past 2 weeks in Salt Lake City, Utah, U.S.A.

Now
54 °F

Broken clouds.


Feels Like: 52 °F
Forecast: 51 / 69 °F
Wind: 7 mph from Southeast

Location: Salt Lake City International Airport

Current Time: May 25, 2015 at 8:42:23 AM

Latest Report: May 25, 2015 at 7:53 AM


Visibility: 10 mi

Pressure: 29.86 "Hg

Humidity: 83%

Dew point: 49 °F

Location of Salt Lake CityLocation

Historic Weather in Salt Lake City — Graph

°F

Salt Lake City temperature yesterday

Maximum temperature yesterday: 65 °F (at 5:53 PM)
Minimum temperature yesterday: 48 °F (at 4:53 AM)
Average temperature yesterday: 56 °F

Past Weeks' High & Low Weather Summary

 TemperatureHumidityPressure
High77 °F (May 12, 3:53 PM)97% (May 17, 6:53 AM)30.05 "Hg (May 17, 6:53 AM)
Low44 °F (May 10, 6:53 AM)11% (May 13, 5:53 PM)29.55 "Hg (May 12, 5:53 PM)
Average57 °F60%29.82 "Hg
* Reported May 10 6:53 AM — May 25 6:53 AM, Salt Lake City, Weather by CustomWeather, © 2015

Note: Actual official high and low records may vary slightly from our data, if they occured in-between our weather recording intervals... More about our weather records

Advertising

Salt Lake City weather history for previous 24 hours

 ConditionsComfort  
Time TempWeatherWind HumidityBarometerVisibility
6:53 AM
Mon, May 25
52 °FPartly cloudy.6 mph89%29.85 "Hg10 mi
5:53 AM53 °FPassing clouds.3 mph86%29.83 "Hg10 mi
4:53 AM53 °FRain. Mostly cloudy.9 mph80%29.83 "Hg7 mi
3:53 AM52 °FPassing clouds.6 mph83%29.83 "Hg10 mi
2:53 AM52 °FPartly cloudy.7 mph86%29.83 "Hg10 mi
1:53 AM52 °FPartly cloudy.6 mph89%29.83 "Hg10 mi
12:53 AM53 °FPassing clouds.10 mph83%29.83 "Hg10 mi
11:53 PM
Sun, May 24
55 °FPassing clouds.5 mph77%29.84 "Hg10 mi
10:53 PM54 °FThunderstorms. Partly cloudy.3 mph83%29.85 "Hg6 mi
9:53 PM61 °FPassing clouds.10 mph60%29.81 "Hg10 mi
8:53 PM62 °FPartly sunny.9 mph48%29.80 "Hg10 mi
7:53 PM63 °FBroken clouds.9 mph48%29.79 "Hg10 mi
6:53 PM65 °FBroken clouds.3 mph45%29.78 "Hg10 mi
5:53 PM65 °FBroken clouds.7 mph47%29.79 "Hg10 mi
4:53 PM64 °FBroken clouds.7 mph49%29.80 "Hg10 mi
3:53 PM64 °FBroken clouds.6 mph52%29.80 "Hg10 mi
2:53 PM63 °FScattered clouds.No wind52%29.82 "Hg10 mi
1:53 PM61 °FScattered clouds.No wind58%29.85 "Hg10 mi
12:53 PM60 °FScattered clouds.6 mph58%29.87 "Hg10 mi
11:53 AM58 °FBroken clouds.7 mph72%29.88 "Hg10 mi
10:53 AM56 °FBroken clouds.No wind72%29.88 "Hg10 mi
9:53 AM52 °FLight rain. Partly sunny.6 mph83%29.89 "Hg10 mi
8:53 AM53 °FLight rain. Broken clouds.No wind72%29.88 "Hg10 mi
Weather by CustomWeather, © 2015

See weather overviewHow to use our weather pages